[[{"header":{"parameterUnit":"m.s-1","parameterCategory":1,"la1":30.2991,"la2":30.254,"lo1":-89.0895,"lo2":-89.0444,"dy":0.0017,"dx":0.0017,"nx":28,"ny":28,"refTime":"2023-08-16T03:00:00:Z","depth":0,"parameterNumber":2,"parameterNumberName":"U-component_of_WINDS"},"data":[0,0,0,0,0,0,0,0,0,0,0,0,0,0,0,0,0,0,0,0,0,0,0,0,0,0,0,0,0,0,0,0,0,0,0,0,0,0,0,0,0,0,0,0,0,0,0,0,0,0,0,0,0,0,0,0,0,0,-2.4986,-2.4985,0,-2.4864,-2.4863,-2.4861,-2.4812,-2.4813,-2.4813,-2.4813,-2.467,-2.4666,-2.4662,0,0,0,0,0,0,0,0,0,0,0,0,0,-2.5158,-2.5155,-2.4986,-2.4985,-2.4983,-2.4864,-2.4863,-2.4861,-2.4812,-2.4813,-2.4813,-2.4814,-2.4671,-2.4667,-2.4662,0,0,0,0,0,0,0,0,0,0,0,0,0,-2.5064,-2.5155,-2.4986,-2.4945,-2.494,-2.4865,-2.4863,-2.486,-2.4812,-2.4813,-2.4813,-2.4814,-2.4673,-2.4667,-2.4661,-2.4612,0,0,-2.4642,-2.4639,0,0,0,0,0,0,0,0,-2.507,-2.5058,-2.4952,-2.4948,-2.4942,-2.4854,-2.4871,-2.4776,-2.4812,-2.486,-2.4813,-2.4814,-2.473,-2.4719,-2.4694,-2.4605,-2.4599,-2.4641,-2.4638,-2.4635,-2.4633,0,0,0,0,0,0,0,-2.5076,-2.5063,-2.4937,-2.4951,-2.4944,-2.4926,-2.4914,-2.4853,-2.4793,-2.4856,-2.4852,-2.4839,-2.4727,-2.47,-2.469,-2.4597,-2.4642,-2.4636,-2.4632,-2.463,-2.4457,-2.4456,0,0,0,0,0,0,-2.5092,-2.5069,-2.4941,-2.4934,-2.5009,-2.4923,-2.4909,-2.4882,-2.4794,-2.4781,-2.4839,-2.4838,-2.4711,-2.4698,-2.4685,-2.462,-2.4635,-2.4629,-2.4626,-2.4457,-2.4456,-2.4455,0,0,0,0,0,0,-2.5096,-2.5081,-2.4946,-2.5,-2.4982,-2.492,-2.4889,-2.4879,-2.4853,-2.4781,-2.4768,-2.4825,-2.4711,-2.4694,-2.4631,-2.4614,-2.4626,-2.4621,-2.4458,-2.4457,-2.4456,-2.4491,0,0,0,0,0,0,-2.5101,-2.5083,-2.5069,-2.5,-2.4979,-2.49,-2.4889,-2.4876,-2.4844,-2.4841,-2.4764,-2.4751,-2.471,-2.4641,-2.4625,-2.4606,-2.4616,-2.446,-2.4458,-2.4456,-2.4491,-2.4491,-2.4491,0,0,0,0,0,-2.5108,-2.508,-2.5068,-2.5053,-2.4961,-2.4899,-2.4886,-2.4845,-2.4844,-2.4825,-2.4778,-2.4754,-2.4619,-2.4635,-2.4616,-2.4595,-2.446,-2.4458,-2.4456,-2.4491,-2.4491,-2.4491,0,0,0,0,0,0,-2.5142,-2.507,-2.5056,-2.5007,-2.4961,-2.4891,-2.4868,-2.4846,-2.4794,-2.4793,-2.4737,-2.4719,-2.466,-2.4621,-2.464,-2.4541,-2.4537,-2.4532,-2.4569,-2.4569,-2.4569,-2.4579,-2.4611,0,0,0,0,0,-2.5145,-2.5108,-2.5044,-2.5006,-2.4984,-2.493,-2.4902,-2.4874,-2.482,-2.4798,-2.4747,-2.4691,-2.4635,-2.46,-2.4545,-2.4485,-2.4464,-2.4461,-2.4461,-2.4461,-2.4456,-2.4417,-2.4414,-2.4449,-2.4449,-2.4449,0,0,-2.5149,-2.5105,-2.5083,-2.5012,-2.4973,-2.4929,-2.4913,-2.4868,-2.4833,-2.4789,-2.4729,-2.4688,-2.4621,-2.4559,-2.4528,-2.4524,-2.4442,-2.4459,-2.446,-2.4454,-2.4415,-2.4411,-2.4408,-2.4448,-2.4448,-2.4448,0,0,-2.5133,-2.5098,-2.5063,-2.5024,-2.4966,-2.493,-2.4921,-2.4855,-2.4828,-2.4767,-2.4733,-2.4686,-2.4594,-2.4547,-2.451,-2.4475,-2.4448,-2.4458,-2.4457,-2.442,-2.4417,-2.4414,-2.4398,-2.4393,-2.4453,-2.4453,-2.4453,0,-2.5144,-2.5083,-2.5045,-2.5002,-2.4969,-2.4933,-2.4893,-2.4855,-2.4779,-2.4754,-2.4753,-2.4634,-2.4586,-2.451,-2.4502,-2.4475,-2.4458,-2.4466,-2.4422,-2.4418,-2.4415,-2.4399,-2.4393,-2.4455,-2.4455,-2.4454,-2.4454,0,-2.5097,-2.5054,-2.5031,-2.4966,-2.493,-2.4888,-2.4838,-2.4805,-2.4779,-2.4741,-2.4676,-2.4617,-2.4549,-2.4529,-2.4501,-2.4447,-2.4446,-2.4434,-2.4428,-2.4414,-2.4397,-2.4391,-2.4457,-2.4456,-2.4456,-2.4455,0,0,-2.51,-2.5015,-2.5007,-2.4975,-2.4908,-2.4871,-2.4824,-2.4763,-2.4735,-2.4682,-2.4638,-2.456,-2.4547,-2.4506,-2.4472,-2.4439,-2.441,-2.4429,-2.4426,-2.4425,-2.4342,-2.4352,-2.4346,-2.4393,-2.4392,-2.4391,-2.4347,0,-2.5075,-2.4998,-2.4961,-2.4898,-2.4855,-2.4819,-2.4777,-2.4727,-2.469,-2.4643,-2.4598,-2.4543,-2.4532,-2.4506,-2.4473,-2.4422,-2.4392,-2.4424,-2.4345,-2.4343,-2.4362,-2.4338,-2.4348,-2.431,-2.4341,-2.434,-2.4339,0,-2.5035,-2.4989,-2.4923,-2.4859,-2.4839,-2.4804,-2.4743,-2.4701,-2.4641,-2.4615,-2.4569,-2.4536,-2.4479,-2.4478,-2.4395,-2.4417,-2.4381,-2.4351,-2.4348,-2.4338,-2.4339,-2.4324,-2.4297,-2.4291,-2.4329,-2.433,-2.433,0,-2.5042,-2.4963,-2.4913,-2.4887,-2.4811,-2.4786,-2.4752,-2.4694,-2.4658,-2.4602,-2.4577,-2.4513,-2.4478,-2.4425,-2.4373,-2.4378,-2.4292,-2.4289,-2.4264,-2.4265,-2.4246,-2.4248,-2.4212,-2.4227,-2.4227,-2.4227,-2.4228,0,-2.5016,-2.4976,-2.4915,-2.4884,-2.4836,-2.4791,-2.4742,-2.4704,-2.4652,-2.4607,-2.4569,-2.4527,-2.4462,-2.4409,-2.4366,-2.4301,-2.4285,-2.4258,-2.4246,-2.426,-2.4264,-2.4235,-2.4235,-2.4226,-2.4226,-2.4226,-2.4227,0,-2.5016,-2.4974,-2.4916,-2.485,-2.4832,-2.4799,-2.4739,-2.4703,-2.4664,-2.4608,-2.4591,-2.4526,-2.4462,-2.4406,-2.4318,-2.4289,-2.4221,-2.4208,-2.4244,-2.4237,-2.4215,-2.4217,-2.4157,-2.4145,-2.4172,-2.4171,-2.4171,0,-2.5002,-2.4972,-2.4903,-2.4874,-2.4842,-2.4795,-2.476,-2.4711,-2.4675,-2.4603,-2.4574,-2.4509,-2.4454,-2.4351,-2.4291,-2.4222,-2.4206,-2.419,-2.4195,-2.4209,-2.4202,-2.4204,-2.4199,-2.4189,-2.4189,-2.4189,-2.4189,0,-2.4981,-2.4962,-2.4916,-2.4862,-2.4822,-2.4776,-2.4727,-2.4703,-2.4644,-2.4604,-2.4541,-2.4499,-2.4412,-2.4344,-2.4269,-2.4225,-2.4195,-2.4189,-2.4179,-2.4191,-2.4212,-2.4198,-2.4241,-2.419,-2.419,-2.419,-2.419,-2.419,-2.4972,-2.4942,-2.4889,-2.4838,-2.4798,-2.4753,-2.4716,-2.4673,-2.4622,-2.4552,-2.4525,-2.4459,-2.4393,-2.4291,-2.4247,-2.419,-2.4184,-2.4171,-2.4167,-2.4164,-2.4165,-2.4224,-2.4176,-2.4175,-2.4175,-2.4175,-2.4175,0,-2.4947,-2.4911,-2.4865,-2.4801,-2.4759,-2.4741,-2.4686,-2.465,-2.4595,-2.454,-2.4488,-2.4412,-2.4346,-2.4281,-2.421,-2.4175,-2.4159,-2.4158,-2.4158,-2.4148,-2.4175,-2.419,-2.4172,-2.4172,-2.4172,-2.4172,-2.4172,-2.4172,-2.4929,-2.4877,-2.4851,-2.4775,-2.4737,-2.4679,-2.4648,-2.4603,-2.4559,-2.448,-2.4427,-2.4387,-2.4326,-2.4249,-2.4185,-2.4166,-2.414,-2.4142,-2.4119,-2.4145,-2.4147,-2.4147,-2.4161,-2.4137,-2.4137,-2.4097,-2.4096,-2.4096]},{"header":{"parameterUnit":"m.s-1","parameterCategory":1,"la1":30.2991,"la2":30.254,"lo1":-89.0895,"lo2":-89.0444,"dy":0.0017,"dx":0.0017,"nx":28,"ny":28,"refTime":"2023-08-16T03:00:00:Z","depth":0,"parameterNumber":3,"parameterNumberName":"V-component_of_WINDS"},"data":[0,0,0,0,0,0,0,0,0,0,0,0,0,0,0,0,0,0,0,0,0,0,0,0,0,0,0,0,0,0,0,0,0,0,0,0,0,0,0,0,0,0,0,0,0,0,0,0,0,0,0,0,0,0,0,0,0,0,-1.6331,-1.6333,0,-1.6573,-1.6576,-1.6579,-1.6587,-1.6585,-1.6582,-1.6579,-1.6833,-1.6842,-1.6852,0,0,0,0,0,0,0,0,0,0,0,0,0,-1.5882,-1.589,-1.633,-1.6333,-1.6336,-1.6573,-1.6576,-1.6579,-1.6588,-1.6584,-1.6581,-1.6577,-1.683,-1.6841,-1.6853,0,0,0,0,0,0,0,0,0,0,0,0,0,-1.6096,-1.5893,-1.633,-1.6369,-1.6375,-1.6572,-1.6576,-1.658,-1.6589,-1.6584,-1.658,-1.6576,-1.6826,-1.684,-1.6854,-1.7031,0,0,-1.6898,-1.6904,0,0,0,0,0,0,0,0,-1.6084,-1.6112,-1.636,-1.6367,-1.6374,-1.6545,-1.6511,-1.6732,-1.659,-1.6508,-1.6579,-1.6574,-1.6741,-1.6762,-1.6818,-1.7043,-1.7053,-1.6899,-1.6908,-1.6914,-1.6918,0,0,0,0,0,0,0,-1.6069,-1.6102,-1.6427,-1.6364,-1.6372,-1.6377,-1.6403,-1.6553,-1.6647,-1.6515,-1.6516,-1.6544,-1.6744,-1.6804,-1.6824,-1.7057,-1.6899,-1.6911,-1.692,-1.6926,-1.7439,-1.7444,0,0,0,0,0,0,-1.6045,-1.609,-1.6419,-1.6434,-1.6215,-1.6389,-1.6417,-1.6495,-1.6645,-1.6663,-1.6548,-1.6544,-1.6782,-1.6807,-1.6833,-1.7047,-1.6914,-1.6927,-1.6935,-1.7434,-1.744,-1.7446,0,0,0,0,0,0,-1.6036,-1.6075,-1.6409,-1.6262,-1.6305,-1.6401,-1.6488,-1.6502,-1.6561,-1.667,-1.6687,-1.6591,-1.6779,-1.6813,-1.6981,-1.7056,-1.6934,-1.6947,-1.7428,-1.7436,-1.7443,-1.7478,0,0,0,0,0,0,-1.6023,-1.6071,-1.6137,-1.6263,-1.6313,-1.6551,-1.6493,-1.651,-1.6585,-1.6582,-1.6715,-1.6733,-1.6778,-1.696,-1.6995,-1.7074,-1.6958,-1.7422,-1.7432,-1.7441,-1.7471,-1.7486,-1.75,0,0,0,0,0,-1.6007,-1.6138,-1.614,-1.618,-1.6397,-1.6555,-1.6583,-1.6632,-1.6591,-1.6659,-1.6729,-1.6728,-1.7044,-1.6977,-1.7017,-1.7101,-1.7417,-1.7429,-1.744,-1.7464,-1.7483,-1.7499,0,0,0,0,0,0,-1.602,-1.6156,-1.6159,-1.6335,-1.6433,-1.6556,-1.6643,-1.665,-1.6763,-1.6756,-1.6814,-1.6844,-1.701,-1.7074,-1.6997,-1.728,-1.7226,-1.7246,-1.7231,-1.725,-1.7264,-1.7243,-1.697,0,0,0,0,0,-1.6043,-1.6158,-1.6272,-1.6416,-1.6465,-1.6546,-1.6617,-1.6646,-1.675,-1.6792,-1.6875,-1.6978,-1.71,-1.718,-1.7298,-1.7482,-1.7511,-1.756,-1.7575,-1.7586,-1.7601,-1.7702,-1.7725,-1.7483,-1.7483,-1.7483,0,0,-1.6092,-1.6181,-1.625,-1.6421,-1.65,-1.662,-1.6581,-1.6709,-1.6798,-1.6813,-1.6974,-1.704,-1.7159,-1.7335,-1.7417,-1.7393,-1.7675,-1.76,-1.7609,-1.7618,-1.7716,-1.7739,-1.7759,-1.7491,-1.749,-1.7489,0,0,-1.6241,-1.6321,-1.6449,-1.653,-1.665,-1.6703,-1.6734,-1.6857,-1.69,-1.7064,-1.7077,-1.7187,-1.7396,-1.748,-1.755,-1.7736,-1.7738,-1.7774,-1.7846,-1.7944,-1.7963,-1.798,-1.8044,-1.8066,-1.7789,-1.779,-1.779,0,-1.6287,-1.6465,-1.6515,-1.6642,-1.6717,-1.6736,-1.6867,-1.6944,-1.7098,-1.715,-1.7122,-1.7385,-1.7467,-1.7663,-1.7708,-1.7766,-1.7803,-1.7756,-1.7956,-1.7974,-1.7991,-1.8051,-1.8076,-1.7793,-1.7792,-1.7792,-1.7792,0,-1.6515,-1.6638,-1.6729,-1.6873,-1.696,-1.7089,-1.716,-1.7243,-1.7266,-1.7323,-1.749,-1.759,-1.7729,-1.7779,-1.7804,-1.7979,-1.796,-1.7944,-1.789,-1.8016,-1.8074,-1.8098,-1.7797,-1.7796,-1.7795,-1.7794,0,0,-1.6674,-1.6847,-1.6878,-1.6944,-1.708,-1.7178,-1.731,-1.7444,-1.7512,-1.762,-1.7731,-1.791,-1.7895,-1.7975,-1.8011,-1.8097,-1.8235,-1.8071,-1.8074,-1.8094,-1.8432,-1.844,-1.8466,-1.824,-1.8245,-1.8249,-1.8421,0,-1.6835,-1.7065,-1.7115,-1.7314,-1.7429,-1.745,-1.7565,-1.7662,-1.7721,-1.7829,-1.7895,-1.8018,-1.7992,-1.804,-1.8127,-1.8199,-1.8303,-1.8189,-1.8343,-1.8348,-1.8307,-1.8497,-1.8506,-1.8663,-1.8444,-1.8448,-1.8451,0,-1.7052,-1.7161,-1.7371,-1.7492,-1.7542,-1.7644,-1.7771,-1.7874,-1.7986,-1.8023,-1.8113,-1.814,-1.8279,-1.8223,-1.8416,-1.8337,-1.8405,-1.8451,-1.8458,-1.847,-1.8403,-1.851,-1.8715,-1.8736,-1.8488,-1.8485,-1.8483,0,-1.7142,-1.7344,-1.7495,-1.7552,-1.7697,-1.7768,-1.7833,-1.794,-1.8018,-1.8131,-1.8182,-1.8311,-1.8381,-1.8481,-1.8542,-1.8496,-1.873,-1.8679,-1.8764,-1.8762,-1.8807,-1.8803,-1.902,-1.8859,-1.8859,-1.8858,-1.8858,0,-1.7314,-1.7441,-1.7537,-1.7629,-1.7773,-1.7832,-1.7973,-1.8038,-1.8134,-1.8241,-1.8271,-1.8371,-1.8448,-1.856,-1.8611,-1.8761,-1.8794,-1.8828,-1.8838,-1.8822,-1.8817,-1.8863,-1.8852,-1.8865,-1.8863,-1.8862,-1.8861,0,-1.7437,-1.7507,-1.7672,-1.7797,-1.7832,-1.7931,-1.8039,-1.8131,-1.8192,-1.8327,-1.8362,-1.8458,-1.8591,-1.8663,-1.8832,-1.8865,-1.9033,-1.9041,-1.8994,-1.8997,-1.9076,-1.9066,-1.9327,-1.9364,-1.9182,-1.9184,-1.9185,0,-1.7539,-1.7636,-1.7772,-1.7844,-1.7909,-1.8027,-1.8106,-1.817,-1.8251,-1.8387,-1.8463,-1.8598,-1.8708,-1.892,-1.9006,-1.9135,-1.9143,-1.9226,-1.9162,-1.9142,-1.9139,-1.9131,-1.914,-1.9235,-1.9236,-1.9238,-1.9239,0,-1.7712,-1.7742,-1.7853,-1.7978,-1.8071,-1.8173,-1.8273,-1.8332,-1.8413,-1.8504,-1.8639,-1.8725,-1.8896,-1.9029,-1.9165,-1.9234,-1.925,-1.9259,-1.9285,-1.9266,-1.9233,-1.9248,-1.9019,-1.9252,-1.925,-1.9249,-1.9249,-1.9248,-1.7826,-1.7913,-1.8021,-1.8144,-1.8227,-1.8321,-1.8412,-1.8485,-1.8598,-1.8739,-1.8773,-1.8915,-1.9027,-1.9211,-1.9284,-1.9398,-1.9382,-1.942,-1.9429,-1.9436,-1.9437,-1.922,-1.9424,-1.9424,-1.9423,-1.9423,-1.9423,0,-1.7997,-1.8068,-1.8181,-1.832,-1.8418,-1.8425,-1.8538,-1.8619,-1.8743,-1.8845,-1.8953,-1.9109,-1.9239,-1.9336,-1.9469,-1.9542,-1.9552,-1.9574,-1.9567,-1.9582,-1.9445,-1.9408,-1.9563,-1.9563,-1.9563,-1.9563,-1.9563,-1.9563,-1.8097,-1.8244,-1.8287,-1.8477,-1.8549,-1.8686,-1.8749,-1.8837,-1.8918,-1.909,-1.9197,-1.9259,-1.936,-1.9501,-1.9621,-1.9646,-1.9692,-1.9712,-1.9738,-1.9607,-1.9592,-1.9577,-1.9542,-1.9723,-1.9723,-1.9865,-1.9866,-1.9867]}]]